User: anonymous   Login
Location: Cactus School
(34.5700°N, 118.0931°W)
Time: 09:10:19
(UTC-07:00)
Language:

Altair - Orbit

View from above orbital plane
View from above orbital plane
View from above satellite
View from above satellite

Ground track
Ground track

The orbit data is extracted from the following two-line orbital elements,

1 00050U 60009B   24103.36790482 -.00000132  00000-0 -43700-3 0  9994
2 00050  47.2290 111.8595 0113093 163.4219 197.0312 12.20138897840538
Epoch (UTC): 12 April 2024 08:49:46
Eccentricity: 0.0113093
inclination: 47.2290°
perigee height: 1502 km
apogee height: 1682 km
right ascension of ascending node: 111.8595°
argument of perigee: 163.4219°
revolutions per day: 12.20138897
mean anomaly at epoch: 197.0312°
orbit number at epoch: 84053

The dashed part of the orbit path shows where the satellite is in the earth's shadow,  

DLR